Beaufort, NC

5:22 PM EST on December 10, 2019 (GMT -0500)
Smith

Weather History for KMRH - October, 2019

Change the Weather History Date:

Monday, October 7, 2019

  Actual Average Record
Temperature  
Mean Temperature 77 °F -  
Max Temperature 84 °F 77 °F 87 °F (1990)
Min Temperature 72 °F 59 °F 44 °F (1980)
Cooling Degree Days 12    
Growing Degree Days 27 (Base 50)    
Moisture  
Dew Point 68 °F    
Average Humidity 78    
Maximum Humidity 97    
Minimum Humidity 60    
Precipitation  
Precipitation 0.08 in - - ()
Sea Level Pressure  
Sea Level Pressure 30.09 in    
Wind  
Wind Speed 9 mph (ESE)    
Max Wind Speed 17 mph    
Max Gust Speed 22 mph    
Visibility 9 miles    
Events Rain    
Averages and records for this station are not official NWS values.
T = Trace of Precipitation, MM = Missing Value Source: NWS Daily Summary

Daily Weather History Graph

Daily Weather History Graph

Search for Another Location

Airport or City:

Astronomy

Oct. 07, 2019 Rise Set
Actual Time 7:05 AM EDT 6:42 PM EDT
Civil Twilight 6:40 AM EDT 7:07 PM EDT
Nautical Twilight 6:11 AM EDT 7:37 PM EDT
Astronomical Twilight 5:41 AM EDT 8:06 PM EDT
Moon 3:46 PM EDT (10/7) 1:14 AM EDT (10/7)
Length of Visible Light 12h 27m
Length of Day
11h 36m
Waxing Gibbous, 69% of the Moon is Illuminated
Oct 7
Waxing Gibbous
Oct 13
Full
Oct 21
Last Quarter
Oct 27
New
Nov 4
First Quarter

Hourly Weather History & Observations

Time (EDT) Temp. Heat Index Dew Point Humidity Pressure Visibility Wind Dir Wind Speed Gust Speed Precip Events Conditions
12:58 AM 75.9 °F - 64.9 °F 69% 30.20 in 10.0 mi ESE 10.4 mph - N/A   Overcast
1:58 AM 73.9 °F - 66.0 °F 76% 30.19 in 10.0 mi ESE 10.4 mph - 0.00 in   Overcast
2:58 AM 73.9 °F - 64.9 °F 73% 30.16 in 10.0 mi SE 5.8 mph - N/A   Mostly Cloudy
3:58 AM 73.0 °F - 66.0 °F 79% 30.15 in 4.0 mi SE 12.7 mph 20.7 mph 0.03 in Rain Heavy Rain
4:58 AM 73.9 °F - 63.0 °F 68% 30.14 in 10.0 mi SE 11.5 mph - 0.00 in   Overcast
5:58 AM 73.0 °F - 66.9 °F 81% 30.14 in 10.0 mi ESE 3.5 mph - 0.00 in   Overcast
6:58 AM 73.9 °F - 66.9 °F 79% 30.14 in 10.0 mi ESE 8.1 mph - N/A   Mostly Cloudy
7:58 AM 73.0 °F - 66.9 °F 81% 30.15 in 10.0 mi East 4.6 mph - N/A   Scattered Clouds
8:58 AM 73.9 °F - 66.9 °F 79% 30.15 in 10.0 mi ENE 5.8 mph - N/A   Mostly Cloudy
9:58 AM 75.0 °F - 66.0 °F 73% 30.15 in 10.0 mi SE 5.8 mph - N/A   Overcast
10:15 AM 73.0 °F - 70.0 °F 90% 30.15 in 2.0 mi South 8.1 mph - 0.03 in Rain Rain
10:58 AM 77.0 °F - 68.0 °F 74% 30.14 in 10.0 mi Calm Calm - 0.03 in   Overcast
11:58 AM 80.1 °F 82.9 °F 69.1 °F 69% 30.12 in 10.0 mi ESE 6.9 mph - N/A   Overcast
12:58 PM 81.0 °F 84.1 °F 69.1 °F 67% 30.10 in 10.0 mi ESE 11.5 mph 19.6 mph N/A   Mostly Cloudy
1:58 PM 82.0 °F 84.9 °F 68.0 °F 62% 30.07 in 10.0 mi ESE 12.7 mph 19.6 mph N/A   Clear
2:58 PM 82.0 °F 84.5 °F 66.9 °F 60% 30.06 in 10.0 mi ESE 11.5 mph - N/A   Scattered Clouds
3:58 PM 82.0 °F 84.9 °F 68.0 °F 62% 30.04 in 10.0 mi SE 11.5 mph - N/A   Scattered Clouds
4:48 PM 80.1 °F 83.2 °F 70.0 °F 71% 30.03 in 10.0 mi ESE 17.3 mph 21.9 mph N/A   Overcast
4:58 PM 78.1 °F - 71.1 °F 79% 30.04 in 10.0 mi ESE 11.5 mph - N/A   Overcast
5:14 PM 78.1 °F - 71.1 °F 79% 30.02 in 10.0 mi ESE 10.4 mph - N/A   Overcast
5:58 PM 77.0 °F - 70.0 °F 79% 30.02 in 10.0 mi East 6.9 mph - N/A   Mostly Cloudy
6:58 PM 73.9 °F - 70.0 °F 87% 30.01 in 10.0 mi East 8.1 mph - N/A   Mostly Cloudy
7:58 PM 73.9 °F - 70.0 °F 87% 30.02 in 10.0 mi East 9.2 mph - N/A   Overcast
8:58 PM 73.0 °F - 69.1 °F 87% 30.02 in 10.0 mi ENE 5.8 mph - N/A   Scattered Clouds
9:58 PM 72.0 °F - 70.0 °F 93% 30.01 in 10.0 mi NE 10.4 mph - N/A   Mostly Cloudy
10:43 PM 72.0 °F - 71.1 °F 97% 30.01 in 10.0 mi ENE 9.2 mph - N/A   Overcast
10:58 PM 72.0 °F - 71.1 °F 97% 30.01 in 10.0 mi ENE 6.9 mph - N/A   Overcast
11:58 PM 72.0 °F - 71.1 °F 97% 29.99 in 8.0 mi NE 8.1 mph - 0.02 in Rain Light Rain